Theta_e
346 345 344 344 342 343 339 339 340 340 340 338 337 337 337 339 339 339 340 340 340 340 339 338 337 337 338 339 338 338 339 339 339 338 340 341 341 342 341 342 342 341 342 342 342 341 341 340 339 338 338 337 333 331 332 335 337 338 338 338 338 338 337 336 334 332 330 332 333 332 332 334 335 335 335 335 335 333 330 330 333 336 335 331 332
345 344 343 343 342 342 339 340 340 340 339 338 338 337 338 338 339 340 340 340 340 340 340 340 340 339 339 340 339 340 340 340 340 341 342 342 342 342 342 342 342 342 342 342 342 342 341 341 339 338 338 337 331 328 329 331 334 336 335 335 336 336 335 333 332 331 330 331 331 330 329 329 332 335 335 335 335 331 329 332 335 335 332 330 332
344 344 343 342 341 341 340 341 340 340 338 337 337 337 338 338 339 339 339 339 339 339 340 341 341 341 341 342 341 341 341 341 340 341 341 342 342 341 342 341 342 342 341 341 341 341 339 338 339 339 338 335 331 327 327 329 332 332 331 331 331 331 331 330 331 332 332 331 331 333 333 329 328 332 334 335 334 329 329 334 335 334 332 331 332
343 343 343 342 341 340 341 341 340 339 337 337 336 337 338 338 338 339 339 338 338 338 338 339 340 340 341 342 341 340 341 341 340 339 340 340 341 340 341 341 340 340 340 340 340 340 336 336 339 338 337 336 334 331 327 328 329 330 331 330 329 329 329 329 330 331 332 333 333 336 337 334 330 329 333 335 331 327 331 334 332 334 334 332 333
344 343 343 343 341 340 341 341 340 339 337 336 337 337 338 338 338 338 338 338 338 337 337 338 338 339 339 340 340 340 340 340 340 340 339 340 340 340 341 340 341 340 339 339 339 339 335 335 339 338 338 336 333 332 329 328 330 332 334 331 328 328 326 327 327 327 331 333 334 337 337 336 333 328 332 331 327 328 332 332 331 333 332 330 333
344 343 342 342 340 340 340 340 340 339 337 337 337 337 337 338 338 338 337 337 337 336 337 337 337 337 338 339 339 339 339 339 340 339 340 340 340 340 340 339 341 341 340 339 338 338 335 334 338 338 338 337 330 328 329 329 331 333 333 330 327 326 324 323 323 324 327 331 333 337 336 336 334 329 329 328 326 329 331 332 333 334 334 333 335
343 342 342 342 340 341 340 340 339 338 336 336 337 338 338 337 337 338 337 337 337 336 336 336 337 336 337 338 338 339 339 339 339 339 338 338 338 339 340 339 339 339 339 338 337 336 336 335 336 337 337 338 331 326 330 329 329 330 330 329 328 327 325 323 323 325 326 330 334 336 336 334 336 331 327 328 329 331 332 333 334 334 335 335 336
342 342 341 340 340 340 339 338 337 334 333 335 336 337 338 337 337 337 337 337 337 337 337 337 337 337 337 338 338 338 338 339 339 338 338 337 337 338 340 340 339 338 339 337 336 335 336 336 337 338 338 339 333 327 329 330 329 329 329 329 331 332 329 327 328 330 331 333 336 336 334 334 336 332 327 329 330 332 332 333 333 334 335 335 335
341 341 340 339 338 338 338 338 336 333 334 335 336 336 336 337 337 337 337 337 337 337 337 337 337 338 338 338 338 337 338 338 339 339 338 338 337 337 338 339 338 338 338 336 335 335 335 337 337 337 338 339 337 331 328 330 331 331 331 329 331 333 333 332 331 333 334 336 337 335 333 335 337 334 329 329 330 332 333 332 333 334 334 333 334
341 341 339 338 338 339 340 338 336 335 336 336 335 335 335 337 337 337 337 337 337 337 337 337 337 338 338 338 337 337 337 337 338 338 337 337 337 336 335 337 337 336 337 336 335 335 335 335 337 336 336 338 338 334 331 330 331 333 333 332 331 333 333 333 333 334 335 335 336 333 333 335 337 335 330 329 330 331 333 333 333 334 333 332 334
341 341 339 339 339 339 339 337 336 336 336 335 335 334 334 335 336 337 337 336 336 336 336 336 336 337 337 337 337 336 337 337 337 336 335 335 336 335 334 335 335 335 336 336 334 335 335 334 337 337 336 337 336 336 334 332 332 333 334 334 333 333 334 333 333 335 336 335 334 331 333 335 336 335 330 330 330 331 333 333 334 333 332 332 333
340 341 340 339 339 338 337 337 336 335 335 335 335 334 334 334 335 336 335 334 334 334 335 335 335 335 335 335 335 335 335 335 335 334 334 334 333 334 334 334 335 335 336 336 334 335 336 335 336 337 336 334 334 336 335 335 334 334 334 334 334 334 334 332 333 336 336 335 334 331 334 335 335 332 330 332 331 331 332 332 333 332 331 333 333
341 340 339 337 337 337 336 335 335 334 334 334 334 334 334 334 335 334 334 334 334 334 335 335 335 334 335 334 334 334 334 334 334 333 333 333 333 333 334 335 335 335 335 335 334 334 336 334 333 334 334 330 332 336 335 335 335 334 335 334 334 334 332 333 336 337 337 336 334 333 334 335 333 330 330 332 332 332 332 332 332 331 332 334 333
340 340 338 336 336 335 334 334 334 333 332 332 332 332 333 333 333 333 333 333 333 334 335 335 335 335 335 334 334 333 333 332 332 332 332 333 333 333 334 335 335 335 336 335 333 333 333 332 330 332 332 329 332 335 335 334 334 333 334 333 333 332 331 333 337 338 338 337 333 333 334 333 331 328 330 332 333 333 333 332 333 332 332 333 333
339 339 338 337 335 334 334 333 332 332 332 332 332 332 332 332 332 332 332 333 333 334 334 334 334 334 334 334 333 332 332 331 332 332 332 332 332 334 336 335 334 335 336 335 332 331 331 330 330 330 329 330 334 335 335 334 333 332 331 332 331 330 330 332 335 338 338 336 335 334 334 333 328 325 327 330 334 335 334 333 334 334 333 333 333
338 337 336 336 335 333 334 333 332 333 332 333 333 332 332 332 332 332 332 332 332 333 333 333 333 333 333 333 333 332 332 331 332 332 332 332 332 333 335 334 334 335 336 335 333 331 331 331 330 329 327 330 334 334 334 333 333 332 331 331 331 330 330 331 332 337 338 336 337 335 334 333 326 325 326 328 333 335 335 334 334 334 334 333 333
337 336 335 335 335 334 335 334 333 333 332 333 333 333 333 332 332 331 331 331 331 331 331 331 332 332 332 332 332 332 332 332 332 332 332 332 332 332 332 332 333 334 335 335 334 333 331 331 331 330 329 331 333 333 333 333 332 332 331 330 331 329 330 331 331 335 338 337 338 335 333 332 326 325 326 328 332 334 334 334 334 333 333 333 332
336 335 335 336 336 335 335 334 334 334 333 333 333 333 332 331 330 330 331 331 330 330 330 330 330 330 331 331 334 335 334 334 334 333 333 332 333 333 331 330 331 332 333 333 332 332 332 332 332 331 330 330 333 335 333 332 331 331 330 330 330 329 330 331 331 335 338 337 337 334 332 331 328 327 326 328 331 333 333 333 333 332 332 332 331
336 335 336 336 335 336 336 335 335 335 333 332 332 331 331 331 330 330 330 330 331 332 333 334 332 330 331 334 336 337 337 337 336 336 336 334 334 334 332 330 331 331 331 332 330 331 330 330 331 331 331 331 333 334 333 332 331 330 329 329 329 329 330 330 334 337 337 336 335 333 332 330 328 328 327 327 330 332 333 333 332 332 333 332 331
336 336 336 336 336 336 336 335 336 336 335 334 334 334 333 334 333 333 332 333 334 335 336 337 337 334 335 337 338 338 338 338 337 337 337 335 334 332 331 331 330 331 331 331 331 331 330 327 325 327 331 331 331 332 331 329 329 329 329 328 328 329 329 330 335 337 335 335 335 333 332 330 329 328 328 328 329 331 333 332 331 330 332 332 330
335 336 336 337 336 336 336 336 336 336 337 337 337 337 337 337 337 336 336 335 336 336 336 337 339 338 338 339 338 338 338 337 335 336 336 333 333 331 329 330 329 330 330 330 331 331 329 325 321 320 325 327 328 328 328 330 331 330 330 330 329 329 329 331 335 336 335 335 334 333 331 330 329 328 328 329 329 331 333 332 330 329 331 331 330
334 335 335 335 336 335 335 336 336 336 336 336 336 336 337 338 337 337 337 335 335 335 335 336 338 338 338 338 338 338 338 337 336 336 335 334 335 333 331 331 331 331 331 331 331 332 330 329 327 320 319 320 322 325 328 334 335 334 334 333 332 332 333 333 335 336 336 334 333 332 331 332 331 329 329 329 329 332 333 333 331 330 331 330 330
333 334 334 333 335 335 335 336 335 335 334 334 335 335 335 336 335 336 335 334 333 333 334 335 336 337 337 337 338 338 337 337 336 337 336 335 336 335 334 334 334 334 333 333 334 335 334 334 334 327 322 322 326 329 333 336 335 336 336 334 334 335 335 334 334 335 335 333 332 330 332 333 332 331 329 329 329 332 334 333 333 331 331 331 330
332 333 333 333 335 334 335 336 335 335 334 335 336 335 335 336 335 334 333 332 332 333 333 334 335 335 336 337 337 336 335 335 335 336 335 334 335 335 335 336 336 335 335 335 335 336 335 334 335 333 329 330 333 334 333 334 334 334 334 333 334 335 334 334 333 333 332 333 332 331 333 334 333 333 332 330 329 331 334 335 334 333 333 331 329
334 334 333 335 337 336 336 338 338 337 335 335 336 336 335 336 335 334 333 333 333 333 333 333 334 334 334 335 336 335 335 335 335 334 334 334 334 334 335 335 335 335 336 335 334 335 336 333 334 335 333 334 335 333 331 332 333 332 332 332 332 333 333 333 333 331 330 332 333 332 333 335 334 334 333 332 330 330 334 336 335 334 334 331 330
337 336 336 337 338 337 338 338 338 338 337 336 336 336 335 336 336 335 335 334 334 334 333 333 334 334 334 332 332 334 334 335 335 334 334 335 335 335 334 334 334 334 335 334 333 334 334 333 334 334 333 333 333 333 333 332 332 332 332 333 332 332 332 331 331 331 330 331 332 332 333 335 335 334 332 331 332 330 331 335 336 335 335 333 332
338 337 337 337 337 337 337 338 337 337 336 335 336 337 336 336 336 335 336 334 334 334 335 334 334 335 335 333 332 332 333 333 334 334 334 335 335 335 334 334 334 334 335 334 334 334 334 334 334 334 334 333 333 333 334 333 333 332 333 334 333 332 331 330 331 330 331 332 332 330 330 334 334 333 333 331 331 331 330 332 336 336 335 335 334
337 337 337 337 337 337 336 337 337 336 335 335 335 336 335 335 335 335 335 335 334 334 334 333 334 335 335 335 335 334 333 332 332 332 333 333 333 333 334 335 334 334 334 334 334 334 334 333 333 333 333 333 333 334 334 334 334 333 333 334 334 334 332 332 332 330 331 331 331 330 329 331 331 331 332 332 331 332 331 331 333 336 336 335 335
334 336 337 336 336 336 335 336 337 336 335 335 335 335 334 334 335 336 336 335 334 334 333 332 334 335 334 335 336 335 335 334 332 332 332 332 332 331 332 333 333 334 334 333 334 333 333 332 332 333 333 332 332 333 333 333 333 333 332 332 334 334 332 333 334 333 332 331 330 330 330 330 331 330 332 333 331 331 332 332 331 334 337 336 335
333 334 335 336 336 336 336 336 337 336 335 335 335 335 335 335 335 335 336 335 334 334 334 333 333 334 334 335 336 335 335 335 334 334 333 332 332 331 331 332 332 332 333 332 332 333 333 332 332 332 333 333 332 332 332 332 333 333 332 332 333 332 331 333 334 334 333 332 331 331 330 330 331 332 334 334 333 332 331 332 332 333 336 336 336
334 334 335 336 336 336 336 335 335 335 334 335 335 335 335 334 334 334 335 335 334 333 334 333 333 334 334 334 335 334 335 335 334 334 333 333 333 332 332 332 332 332 333 332 332 332 332 332 331 332 332 332 331 331 332 332 331 332 332 331 331 330 331 332 332 333 333 332 331 331 331 331 331 332 334 335 335 334 332 331 332 332 335 336 336
334 335 335 335 335 334 334 334 334 334 333 334 333 333 333 333 333 334 334 334 333 333 333 333 333 334 333 333 333 333 333 333 333 333 333 333 333 332 332 332 332 332 332 332 332 332 332 331 331 331 331 331 330 329 330 330 330 330 330 330 330 329 329 329 329 330 331 331 331 331 331 331 331 331 333 334 335 335 334 332 332 332 335 336 336
333 334 334 334 333 333 333 333 333 333 333 333 332 331 330 331 331 331 331 331 332 332 332 332 331 332 332 331 331 331 331 332 332 333 332 332 332 332 332 332 332 332 332 331 332 332 332 332 332 332 332 332 330 329 329 330 330 330 329 329 329 329 329 328 327 327 328 329 329 329 331 331 331 331 331 332 333 334 334 334 333 334 334 335 334
332 333 333 333 332 332 332 332 331 331 331 331 331 330 329 329 329 329 329 329 329 329 329 330 330 330 330 329 330 329 329 330 330 331 331 331 331 331 331 331 331 332 332 331 332 332 331 332 332 332 332 332 331 330 330 330 330 330 330 329 329 329 330 329 328 328 326 326 327 327 329 330 331 331 331 331 332 333 333 333 335 335 334 334 333
331 331 332 332 331 331 331 331 330 329 329 330 330 329 329 328 328 328 327 327 327 328 328 327 327 327 327 327 327 327 327 328 328 329 328 329 329 329 329 329 330 330 330 330 330 330 330 331 331 331 331 331 330 329 329 330 330 330 329 327 327 327 329 329 329 329 328 327 326 327 327 328 329 329 329 330 331 331 332 332 334 334 334 333 332
331 330 330 330 330 330 329 328 328 327 327 327 327 327 327 326 326 326 324 324 325 325 325 324 324 324 324 323 324 324 324 325 326 326 326 327 327 327 326 327 328 328 328 328 328 329 329 329 329 329 329 329 329 327 327 328 328 328 326 325 325 327 327 329 329 329 329 328 327 327 326 327 328 328 328 330 330 330 331 331 332 333 333 334 333
329 329 329 329 329 328 327 327 326 326 326 325 324 324 324 324 323 323 322 322 322 322 322 322 321 322 321 321 322 322 322 323 323 323 324 325 325 325 324 324 325 325 326 325 326 327 326 327 326 325 327 326 325 326 326 327 327 325 323 324 324 325 325 326 327 328 328 328 327 327 326 327 326 327 329 329 328 328 328 329 330 331 332 332 333
328 327 327 326 326 325 324 324 324 324 324 324 323 322 322 322 322 322 322 321 321 321 321 321 320 320 320 320 321 321 321 322 322 322 322 323 323 323 322 322 323 322 323 323 323 323 323 325 324 323 325 324 322 324 326 326 324 322 322 322 321 321 322 323 325 327 328 327 326 326 327 327 326 326 327 327 327 328 328 326 327 328 329 331 332
326 325 324 323 322 321 321 321 322 322 321 321 323 323 321 321 322 322 322 322 322 321 321 321 319 319 320 319 320 321 321 321 322 321 321 322 322 322 322 321 321 321 322 321 321 320 320 322 323 322 323 323 321 323 323 323 323 323 322 320 320 320 322 323 323 325 326 327 326 326 326 326 326 325 326 326 326 328 328 328 327 327 328 330 331
323 322 321 321 321 321 321 320 321 321 322 322 323 323 322 322 321 321 320 320 321 321 320 320 320 319 319 319 319 319 319 320 321 321 319 320 321 321 322 321 320 320 321 321 320 319 318 320 322 321 322 321 321 321 321 322 322 323 321 320 321 321 320 320 321 323 323 323 323 323 324 325 325 325 326 326 326 326 328 330 330 328 329 330 330
320 321 321 321 321 320 320 320 321 321 322 322 322 322 322 321 321 320 320 319 320 320 319 319 320 319 318 319 318 318 318 318 319 320 319 319 319 320 320 321 320 319 319 320 319 318 318 319 321 320 321 321 321 321 320 321 322 322 320 321 322 320 319 321 322 320 317 318 319 319 321 322 324 325 325 325 326 327 328 329 330 329 330 330 329
320 321 321 320 320 320 320 321 322 322 322 322 322 321 321 320 320 319 318 319 319 319 319 319 319 319 318 318 317 317 317 317 318 318 318 317 317 318 318 319 320 318 319 319 318 318 317 319 319 318 319 320 321 320 319 321 321 321 320 322 323 320 319 321 321 317 315 317 319 318 319 319 321 323 324 324 325 326 327 327 328 328 328 328 327
321 321 321 320 320 320 320 321 321 320 320 320 321 321 320 320 319 318 317 318 318 318 318 318 318 318 317 317 317 317 316 317 317 317 317 316 316 317 316 318 318 317 318 318 317 317 317 318 318 317 319 319 319 319 319 320 320 320 320 322 323 322 321 321 319 317 317 319 318 318 319 318 319 320 321 322 324 325 326 326 326 326 325 327 327
321 321 320 320 320 320 320 321 321 320 320 319 319 319 319 319 319 319 318 318 317 317 317 317 317 317 317 316 316 316 316 316 316 316 316 316 316 317 316 316 316 315 317 317 316 317 317 317 317 316 318 318 318 318 318 318 318 319 321 322 322 322 322 321 319 318 319 319 318 318 318 318 318 318 318 320 321 322 326 328 326 325 324 325 327
320 320 320 319 319 319 319 320 320 319 319 319 319 318 318 318 318 318 318 318 317 316 316 317 316 316 316 316 316 316 316 316 316 316 316 315 315 317 317 316 315 314 316 317 315 316 316 316 316 315 316 318 317 318 318 317 316 317 320 320 320 321 321 319 319 319 318 318 318 318 318 318 318 318 317 317 317 319 323 325 324 322 323 324 325
320 320 319 319 319 318 318 319 319 318 318 318 318 318 318 318 318 317 318 317 317 316 316 316 315 315 316 316 316 316 315 315 315 314 315 315 315 316 316 316 315 313 315 316 315 316 316 315 316 315 315 316 316 317 317 316 316 316 316 317 318 319 320 319 320 320 318 317 318 317 317 318 317 317 316 316 317 316 317 319 320 320 322 324 324
320 320 319 319 319 318 318 319 319 318 318 318 318 318 317 317 317 317 317 317 317 316 315 314 314 314 315 316 315 314 313 312 313 314 314 315 315 315 315 315 315 313 314 315 314 315 315 315 315 315 315 315 315 316 316 316 316 316 315 315 316 316 316 317 319 319 318 317 317 316 316 316 316 316 316 316 316 316 316 316 317 317 319 321 321
320 319 319 319 318 318 318 318 319 318 317 317 317 317 317 317 317 317 317 316 316 316 315 315 314 313 314 315 315 314 313 312 313 315 314 314 315 315 314 315 315 314 314 314 314 314 314 315 315 314 314 315 314 315 315 315 316 316 315 315 315 315 315 316 316 317 318 317 316 316 316 316 315 315 316 316 315 315 315 315 315 315 315 317 318
321 320 319 318 318 319 319 319 318 318 317 317 317 317 316 317 316 317 317 316 316 315 315 315 315 314 314 315 315 315 315 314 314 315 315 315 315 315 315 315 315 314 314 314 313 314 314 314 314 314 314 314 314 315 314 314 316 316 315 315 315 315 315 315 315 315 316 316 316 315 315 315 315 315 315 314 315 315 315 315 315 315 315 315 317
321 320 319 319 319 319 319 319 318 318 317 317 316 316 316 316 316 316 316 316 316 315 315 315 315 314 314 315 315 315 315 315 315 315 315 315 315 316 315 315 315 314 314 314 313 314 314 313 314 314 314 314 313 314 314 314 315 315 315 315 315 315 315 315 315 314 315 315 315 315 314 314 314 314 314 314 314 314 314 315 315 315 314 314 316
320 320 319 319 319 320 319 319 319 318 318 317 317 317 316 316 316 316 316 316 315 316 315 314 314 314 315 314 314 314 314 315 315 315 315 314 314 314 314 315 314 313 313 313 313 314 313 312 314 314 314 313 313 314 314 314 315 315 314 314 315 314 315 315 314 314 315 315 316 315 314 314 314 313 313 313 313 313 314 314 314 314 314 314 316
Wind_Speed
10 11 11 13 14 14 14 15 14 13 13 13 13 13 13 12 12 13 13 13 13 13 13 12 12 11 11 11 11 11 11 11 10 10 10 9 10 10 10 10 10 10 9 9 9 9 9 8 8 7 7 7 7 7 6 5 5 5 6 6 7 6 5 4 4 4 3 4 4 5 5 5 6 6 6 6 5 4 3 6 8 8 9 9 10
11 12 12 13 13 14 15 15 14 13 13 13 14 13 13 12 12 13 13 14 14 14 13 12 12 11 11 10 10 11 11 11 11 11 10 10 11 11 10 10 10 10 9 9 9 9 9 8 8 7 6 6 6 7 6 6 6 5 5 4 4 3 2 2 3 3 4 4 5 5 6 5 6 6 6 6 6 5 5 8 10 10 11 10 10
13 13 11 12 13 14 15 14 13 13 13 13 13 13 13 12 12 12 13 13 13 13 13 13 12 12 12 12 11 12 12 12 12 12 11 11 11 11 11 10 9 9 9 9 9 8 8 8 7 7 6 6 6 6 7 6 6 6 5 4 3 2 3 3 3 4 4 5 5 5 6 6 6 6 7 6 6 6 7 9 11 11 11 10 10
13 12 11 11 13 15 14 14 13 13 12 13 13 12 12 12 12 12 12 12 13 13 13 13 12 13 12 12 12 13 13 12 13 13 13 12 12 11 10 10 8 7 8 8 8 7 8 8 7 7 7 6 6 6 7 7 7 7 7 6 5 4 5 4 3 4 4 3 3 4 3 5 7 6 7 7 6 8 8 9 11 11 10 9 9
12 12 13 11 12 14 14 14 13 12 12 12 12 12 12 11 11 11 11 12 12 12 12 12 12 12 12 12 13 14 13 13 13 13 13 12 12 11 10 9 7 7 7 7 7 7 8 8 7 7 7 6 5 5 6 6 7 7 7 6 6 6 6 5 4 4 3 2 2 4 4 6 7 7 6 7 8 9 8 8 9 9 9 8 9
12 13 14 10 11 12 12 13 12 12 12 12 13 12 12 11 11 11 11 11 11 11 11 11 11 11 11 12 12 13 13 13 12 12 12 11 11 10 9 8 7 6 6 6 5 7 7 6 6 5 5 4 4 4 5 5 5 6 5 6 7 7 7 6 4 3 3 1 1 1 3 5 6 6 7 7 8 8 7 8 9 9 9 9 8
13 13 12 10 10 10 11 11 12 12 12 12 12 12 12 11 11 11 10 10 10 10 10 9 10 10 10 10 10 11 11 11 11 11 11 10 10 9 9 8 6 5 4 3 3 5 6 5 4 4 3 2 2 4 5 5 5 5 5 5 6 7 7 6 4 3 1 1 2 3 1 5 4 4 7 7 7 7 8 8 9 9 9 9 8
13 13 10 10 10 9 10 11 12 12 11 11 11 12 11 11 10 10 10 9 9 9 9 9 9 9 9 9 9 8 9 10 10 10 10 9 9 8 8 7 5 4 3 2 2 4 5 5 4 3 1 1 2 2 4 4 3 3 3 3 5 7 7 6 4 4 5 6 7 6 1 6 5 4 6 6 7 7 8 8 8 9 9 8 8
14 13 10 10 10 9 10 10 11 11 10 10 10 11 11 11 10 9 9 9 9 9 8 8 8 9 9 8 8 7 7 8 8 8 8 8 8 8 7 5 4 4 3 2 2 3 5 4 4 3 2 2 2 1 1 1 1 1 2 2 3 5 6 6 4 7 8 11 13 6 3 8 7 3 5 6 6 7 7 7 7 7 7 8 8
14 13 10 10 9 9 10 10 10 10 10 10 10 10 11 11 10 9 9 9 9 9 9 9 9 9 9 8 7 7 7 7 7 7 7 7 7 6 5 4 4 4 3 2 2 2 3 4 3 5 4 3 4 2 2 2 2 2 2 2 3 4 6 6 6 9 11 13 12 2 8 9 8 3 4 5 5 6 6 7 7 6 6 7 8
13 12 10 10 10 10 10 10 10 10 10 10 10 10 11 10 10 9 9 9 9 9 9 9 9 9 8 8 7 7 7 6 6 7 6 5 5 5 4 4 4 4 2 2 1 2 2 2 2 4 4 4 5 4 3 4 5 5 4 4 4 5 6 7 8 10 11 12 12 3 10 8 7 4 4 5 5 7 5 6 7 7 7 7 8
13 12 11 10 10 10 10 10 10 10 10 11 11 11 10 10 10 9 9 9 9 9 9 9 8 8 7 7 7 7 6 6 7 7 6 6 6 5 5 5 4 4 1 0 1 2 2 1 1 3 4 5 6 5 4 4 5 5 5 6 6 6 6 7 8 10 10 11 12 4 11 8 5 5 5 5 5 6 6 6 6 7 8 8 8
11 11 9 9 9 9 10 10 10 10 10 10 10 10 10 10 10 9 9 9 9 9 9 8 7 7 6 6 6 7 7 6 7 8 9 8 7 6 5 5 4 4 2 1 1 1 2 1 1 3 5 6 5 4 4 3 3 4 5 6 6 6 7 7 9 10 11 10 11 5 7 7 4 5 5 6 6 7 7 6 6 7 8 8 9
9 9 8 7 8 8 9 9 9 9 9 9 9 9 9 9 9 9 8 8 9 8 7 7 6 6 6 6 6 7 8 8 9 10 10 9 8 7 5 5 4 4 3 1 1 1 1 2 3 3 5 5 4 3 3 2 2 3 4 5 6 6 7 7 9 10 12 10 9 7 4 7 4 4 5 6 7 7 7 7 7 6 7 8 8
9 8 6 6 7 8 8 8 8 8 8 8 9 8 9 9 8 8 8 8 7 7 6 6 6 6 6 6 7 8 9 10 10 10 10 9 9 7 6 5 4 5 4 3 3 3 3 3 3 3 3 3 3 3 3 3 3 4 5 6 6 7 8 8 8 8 10 9 10 11 1 6 4 3 4 6 7 8 7 7 7 6 6 7 7
8 7 6 6 6 7 7 7 7 8 8 9 9 8 8 8 8 7 7 7 7 6 6 6 6 6 6 7 7 9 10 10 10 10 10 9 9 8 7 7 5 4 3 3 3 3 4 3 3 4 3 2 3 3 4 5 5 5 5 6 7 8 9 9 9 8 10 9 10 10 1 5 2 2 3 5 8 8 7 7 7 6 6 6 7
9 7 7 6 6 7 7 7 7 8 9 9 8 8 9 9 8 8 8 7 6 6 6 6 6 6 6 6 7 9 11 11 9 10 10 9 9 9 9 7 6 5 4 3 3 3 3 3 4 4 4 4 4 4 5 6 6 6 6 7 8 9 10 10 10 9 9 10 10 7 2 6 2 2 1 5 7 8 8 7 6 6 6 5 5
9 8 7 6 7 7 7 8 8 8 9 9 9 9 9 9 9 8 7 7 7 7 8 9 8 6 6 7 8 10 11 11 10 10 11 9 9 8 8 7 6 5 4 4 4 3 3 3 4 5 6 5 5 5 7 7 7 7 7 8 9 10 10 10 10 9 9 8 10 9 3 7 3 2 1 4 7 8 8 6 4 6 7 6 5
9 8 6 6 7 8 7 8 8 8 9 10 11 10 10 10 10 9 8 7 8 9 9 11 11 9 9 9 9 9 10 11 10 10 11 10 10 9 8 7 6 5 5 5 5 5 5 5 6 7 7 6 6 7 7 8 8 9 8 8 9 10 11 10 9 8 9 9 11 9 4 8 5 1 1 4 6 8 8 7 5 6 8 7 5
9 7 6 6 6 7 7 7 7 7 8 10 11 10 10 10 10 10 10 10 10 10 10 10 11 10 10 9 9 9 9 9 9 9 9 9 10 9 8 8 8 7 7 6 6 6 7 7 8 8 8 8 8 9 9 9 9 10 9 9 9 10 11 10 9 8 9 11 12 9 6 8 6 2 3 4 6 8 9 9 7 7 8 6 4
8 8 7 7 5 6 7 6 5 6 7 8 8 6 7 7 8 9 9 11 11 11 12 11 9 9 8 7 7 8 8 9 9 7 7 7 10 9 7 8 8 8 8 7 7 7 8 8 9 8 8 9 10 10 9 10 10 10 9 9 9 11 12 10 10 9 9 12 12 9 9 8 6 5 4 5 6 8 9 9 8 7 8 7 5
7 9 10 10 7 6 7 6 5 6 5 7 7 5 6 5 6 7 7 9 9 9 11 10 9 9 9 9 8 7 7 9 9 7 6 6 8 9 7 8 8 8 8 6 6 6 7 8 9 8 7 6 8 9 9 10 11 11 10 9 10 10 11 11 12 11 10 12 10 7 8 7 7 7 6 6 6 9 11 10 9 8 9 9 7
6 8 9 9 8 8 9 9 8 7 5 7 8 6 5 5 6 6 5 6 8 8 9 9 10 10 11 11 9 8 7 7 7 6 6 4 5 8 8 7 7 9 8 7 7 7 7 8 8 8 6 5 6 7 8 10 10 11 11 12 11 9 10 12 11 11 12 13 8 5 7 7 7 8 6 6 7 9 12 11 10 9 9 10 10
13 10 9 9 8 9 10 10 10 9 8 8 7 6 5 6 8 6 5 6 7 8 9 10 11 10 10 11 9 10 10 9 9 8 8 6 6 8 7 6 6 8 7 7 9 8 8 9 8 8 8 6 7 9 9 10 10 10 12 12 11 11 11 11 10 10 12 12 10 9 9 9 9 9 6 6 8 9 12 12 11 10 10 10 10
13 12 11 11 10 10 10 8 9 9 9 8 6 6 6 7 8 7 7 7 8 9 9 11 12 11 11 10 8 9 10 10 10 10 11 9 9 9 8 7 8 7 6 8 8 7 7 9 9 8 7 6 8 10 10 10 10 11 11 11 10 10 11 11 11 9 7 8 8 9 10 12 11 9 6 6 8 9 12 12 11 11 11 11 11
12 11 11 12 12 12 11 9 9 9 9 9 8 8 8 9 9 8 9 9 10 10 9 10 11 11 11 10 8 8 9 9 9 10 11 10 10 9 8 8 9 7 7 8 8 8 8 9 9 7 6 6 7 8 10 11 11 12 11 10 9 8 10 12 12 9 6 4 5 7 9 14 12 9 8 7 8 10 11 12 13 13 14 14 13
12 12 12 12 12 13 12 11 11 10 9 9 9 8 8 9 9 9 9 9 10 10 10 10 10 11 12 11 10 10 9 8 8 9 10 10 9 9 9 9 8 7 7 10 9 9 9 10 10 8 7 8 8 7 8 10 10 11 10 10 11 10 12 14 13 10 6 5 6 7 7 11 12 11 11 10 8 10 12 13 14 14 15 16 15
13 12 11 11 12 13 11 11 11 11 10 9 10 10 9 9 9 9 9 9 9 9 10 10 9 11 12 11 11 10 11 10 9 9 9 8 8 7 8 8 7 7 8 10 9 9 9 9 9 8 9 9 9 8 8 8 8 8 8 10 11 11 12 13 13 10 6 8 9 8 8 9 12 10 11 12 10 9 12 13 15 16 16 17 17
12 11 10 10 12 12 11 12 12 12 11 10 11 10 10 10 10 9 9 9 9 9 10 9 10 11 11 11 11 10 11 11 10 9 9 9 9 8 8 8 7 7 8 9 9 10 10 10 9 8 9 9 8 8 9 8 7 8 9 9 8 9 10 10 11 7 7 9 8 9 10 9 10 8 8 11 12 10 11 13 16 17 17 18 19
12 11 11 10 11 12 13 13 13 12 11 11 11 10 10 10 9 9 9 9 9 9 9 10 10 11 11 11 11 11 11 11 12 11 10 10 10 10 11 10 9 10 9 10 11 11 11 11 10 10 9 10 9 9 10 8 7 9 10 9 8 10 10 9 9 7 8 10 7 8 9 7 9 8 8 10 11 11 11 13 16 17 18 19 21
12 11 10 10 11 12 13 13 12 12 11 10 10 11 11 11 10 10 10 10 10 10 9 10 11 12 13 12 12 12 12 13 13 13 12 12 11 10 11 11 11 12 10 10 12 12 11 12 12 11 11 11 11 11 11 9 8 9 10 9 8 10 10 8 9 7 8 9 9 7 5 6 8 9 9 11 11 11 11 12 15 17 19 21 22
10 9 8 10 11 12 13 13 13 13 12 11 11 11 11 11 11 11 12 11 12 12 12 12 13 14 14 14 15 15 15 15 15 14 13 13 12 12 12 12 13 13 11 10 12 12 11 11 12 12 12 13 13 12 11 11 11 11 12 11 10 11 10 9 10 9 8 9 9 7 6 6 8 9 10 11 12 12 12 13 14 16 19 21 22
9 10 10 11 11 11 13 13 13 14 13 13 12 12 12 12 13 13 13 13 13 14 13 14 14 14 16 16 15 15 16 16 16 15 14 14 14 14 14 14 14 14 14 13 13 12 12 13 13 14 13 14 14 14 13 13 13 12 13 12 12 13 11 11 11 11 10 9 8 9 9 7 7 8 9 11 11 11 13 15 15 14 17 20 23
11 12 13 13 12 11 12 13 14 14 14 14 14 14 13 13 13 13 13 12 13 14 14 14 14 14 15 16 15 15 16 16 16 16 15 14 14 14 15 15 15 15 15 15 15 14 14 15 15 15 15 15 15 15 14 12 12 13 13 12 12 12 11 11 12 11 12 11 10 9 8 8 6 5 8 10 10 11 14 16 16 15 17 20 22
13 13 14 13 13 12 12 13 14 14 14 14 14 14 14 13 13 13 12 11 12 13 13 14 13 14 14 15 16 16 16 17 17 16 15 13 13 14 14 15 15 15 16 15 15 15 16 16 17 17 16 16 16 16 15 13 13 14 15 15 15 12 10 12 12 12 11 12 12 10 10 10 8 7 9 10 9 11 14 16 16 16 18 20 21
13 13 13 13 14 14 14 14 15 15 15 15 14 13 13 13 13 13 13 14 14 14 14 14 14 15 15 15 16 16 16 17 16 16 16 14 13 14 15 15 15 15 17 15 15 16 17 17 17 17 17 17 16 16 15 15 15 16 17 17 16 12 11 13 12 12 11 11 10 9 11 11 9 9 9 9 9 11 13 15 16 15 17 19 20
13 13 13 13 14 14 14 15 15 15 14 13 12 13 13 13 13 13 14 15 16 16 15 15 16 15 15 15 15 15 16 16 16 16 16 15 15 15 15 16 15 15 16 16 16 17 17 18 18 18 18 18 18 17 15 16 17 18 19 17 17 16 16 16 13 10 11 13 10 7 9 8 8 9 8 7 8 9 11 11 12 13 15 17 18
13 13 14 14 14 14 15 15 15 13 12 10 9 9 11 12 12 13 13 13 14 15 16 15 16 16 15 15 15 15 16 15 15 15 15 15 14 14 15 16 16 16 16 17 17 18 18 18 19 19 18 19 20 18 16 19 20 19 19 20 20 19 18 18 16 10 8 12 9 7 9 8 8 9 6 5 6 8 9 9 10 11 12 14 16
13 14 15 15 15 16 16 17 17 16 15 14 13 12 11 10 11 12 12 13 13 14 15 15 15 16 16 15 15 15 15 14 14 14 15 15 14 15 15 16 17 16 16 17 17 18 19 18 19 20 19 19 19 19 20 23 21 19 20 22 21 21 19 18 16 10 6 9 9 8 8 8 10 9 4 5 8 10 10 9 11 12 12 11 13
14 15 15 15 16 16 17 17 18 18 17 17 18 17 15 13 12 12 10 11 14 14 14 14 14 15 15 14 14 14 14 13 13 14 15 15 15 15 15 16 16 16 16 17 17 18 19 18 18 20 20 20 19 20 23 24 21 19 22 23 20 21 20 18 17 13 11 13 12 13 11 8 9 8 5 8 11 11 10 9 10 12 14 12 11
14 15 15 15 16 16 17 17 16 16 16 16 16 17 17 16 15 14 12 11 12 12 13 13 12 14 14 14 14 15 14 14 13 13 14 15 15 15 15 15 15 16 16 16 16 17 18 18 18 19 19 20 19 20 24 23 20 19 21 21 20 22 20 16 18 22 22 19 17 19 15 8 9 7 5 8 11 9 7 8 9 11 13 13 12
13 14 14 14 15 15 16 15 15 15 14 13 13 12 12 13 13 14 15 14 11 10 11 10 10 12 13 14 14 15 14 14 14 13 14 15 15 15 15 15 15 15 16 15 16 17 18 19 19 20 19 19 18 19 23 21 17 17 16 14 16 21 22 19 24 29 26 21 21 23 19 16 15 9 5 7 8 5 5 7 7 8 11 13 14
12 12 12 13 13 14 14 14 14 15 15 15 13 12 11 11 11 11 13 14 12 12 11 9 10 11 11 13 13 14 14 14 14 13 14 15 15 14 15 16 15 15 15 15 17 18 18 19 20 19 19 18 17 18 21 19 18 18 14 8 8 12 15 18 27 31 25 21 23 22 21 22 21 17 13 8 4 4 7 9 9 10 12 12 14
10 11 11 11 12 13 13 13 14 14 14 15 15 15 14 13 12 10 10 12 12 13 14 13 12 12 12 11 12 13 13 13 13 13 13 14 14 14 15 16 16 15 14 15 16 17 18 19 19 18 18 18 18 18 19 19 20 18 11 5 5 6 6 11 21 24 21 21 22 21 21 21 20 21 22 16 11 8 6 5 9 14 17 15 15
9 10 9 9 11 12 12 12 13 13 13 15 15 15 14 13 12 11 10 10 10 10 13 12 10 10 10 10 10 11 12 12 13 13 13 14 14 13 14 15 15 15 15 15 16 16 16 17 17 18 19 19 18 18 18 19 21 19 14 7 5 4 4 10 15 14 17 21 20 20 20 20 20 22 25 23 20 17 8 5 10 16 18 16 15
8 8 8 9 12 11 11 12 11 11 13 15 14 14 14 13 12 11 10 8 7 7 8 9 9 8 9 10 10 9 10 12 12 13 13 14 13 13 14 14 14 14 15 15 14 14 15 15 15 16 17 18 18 18 18 20 20 19 20 14 10 8 8 11 9 7 15 18 17 19 21 21 23 23 23 21 22 22 19 15 17 18 17 14 14
8 8 7 9 12 11 11 12 11 11 13 14 12 12 14 13 12 11 11 11 9 8 8 9 9 10 10 10 11 10 11 11 12 12 13 13 12 13 13 13 13 13 14 14 13 14 14 13 14 15 15 15 17 16 17 20 19 18 20 19 16 16 15 14 8 6 10 13 15 19 20 20 23 22 20 20 22 22 21 21 21 21 17 15 18
9 8 8 10 12 10 10 10 11 11 12 12 12 12 12 12 12 13 13 13 13 11 11 10 9 10 12 11 11 13 12 12 12 12 12 13 12 12 13 12 12 13 13 13 12 13 13 13 14 14 13 14 15 14 15 18 17 17 20 20 19 18 19 18 15 11 8 7 13 16 18 22 22 20 19 20 21 21 22 23 22 21 20 21 23
9 8 9 11 10 7 8 10 11 10 9 10 10 11 11 11 12 12 11 12 12 11 11 12 10 9 12 12 10 11 11 11 12 11 11 12 11 12 12 12 12 12 12 12 12 12 12 13 13 12 13 14 13 13 13 15 15 15 17 18 19 18 18 19 19 17 11 7 9 9 15 21 20 19 20 21 21 21 23 23 20 19 21 22 19
10 9 9 10 9 6 7 8 9 9 8 8 9 10 10 10 12 12 11 11 12 11 11 11 11 10 11 11 10 10 10 10 11 10 11 11 11 11 12 12 12 12 12 12 11 12 11 12 13 12 13 13 13 12 12 12 13 14 14 15 16 16 15 14 15 17 13 10 8 8 12 16 15 18 22 23 23 24 24 22 20 19 20 21 15
10 9 9 10 8 6 6 7 7 7 7 7 8 9 10 11 12 12 12 12 12 12 11 10 11 11 11 11 10 10 11 10 10 10 11 11 11 11 11 11 12 12 12 11 11 11 11 12 12 12 13 13 13 12 12 13 13 14 14 14 15 14 13 12 14 17 13 9 8 7 11 15 15 18 22 24 25 24 23 22 21 18 18 20 15
Wind_Direction
86 89 90 95 100 96 90 83 77 74 71 68 68 67 65 63 60 58 58 59 59 59 58 60 60 59 58 54 54 55 54 47 47 50 52 54 59 62 61 61 62 61 59 57 56 56 53 50 46 37 28 17 10 4 8 22 34 42 51 60 69 74 80 80 69 63 74 85 88 84 78 84 86 82 82 79 69 57 82 101 83 99 129 119 109
89 83 86 93 99 95 86 80 76 73 73 70 70 69 67 64 62 59 59 60 60 60 59 59 61 62 60 56 52 51 51 47 47 52 55 57 59 59 58 59 61 62 62 60 55 54 51 46 39 32 25 13 4 1 9 24 37 41 47 59 61 62 43 44 63 61 80 99 98 78 61 76 93 89 87 80 64 60 91 89 78 108 128 119 113
85 77 82 91 98 94 83 78 76 75 74 73 71 69 68 64 61 58 57 58 59 59 58 57 58 59 58 56 52 51 51 49 48 50 53 57 60 60 60 61 64 67 64 59 53 50 45 42 39 37 32 22 20 21 30 36 43 48 46 55 41 8 359 20 71 80 87 94 95 80 63 78 89 89 93 86 74 84 97 92 91 104 115 113 110
87 85 84 90 96 92 84 81 80 79 77 76 73 70 68 65 62 58 56 56 57 57 57 56 54 54 54 53 50 52 54 51 51 51 52 56 57 57 60 62 63 65 64 61 55 49 42 47 50 47 42 40 45 44 47 49 55 58 49 49 38 19 20 32 66 83 90 68 84 106 118 107 84 79 96 93 92 106 102 97 101 104 111 107 99
90 88 83 85 91 90 88 87 85 83 83 79 74 72 68 65 63 59 58 55 54 55 54 53 52 51 50 49 48 51 54 52 52 54 55 56 54 54 56 59 58 55 57 57 56 53 48 57 64 59 53 45 57 64 61 65 69 64 47 37 33 27 23 31 50 69 83 48 109 134 156 133 82 72 98 99 104 111 101 97 101 101 108 100 95
84 84 84 89 91 88 91 92 91 87 86 82 77 73 68 64 60 56 55 53 51 51 51 50 49 48 48 47 48 50 52 51 51 52 54 55 54 52 50 51 53 51 56 54 53 60 54 63 78 77 74 55 64 91 84 84 88 76 57 38 32 29 24 31 46 62 83 70 135 122 140 121 72 75 102 103 109 110 99 101 102 96 98 95 95
83 85 85 93 91 83 91 93 94 92 89 86 81 77 71 65 59 56 53 51 49 48 49 47 46 47 47 46 48 49 49 50 49 46 46 46 48 52 48 44 43 46 61 60 57 69 61 53 69 73 83 69 62 111 106 98 103 92 73 52 40 35 32 31 34 34 4 318 331 304 213 113 87 97 112 110 112 109 107 106 103 97 95 95 97
82 82 86 92 90 85 91 90 93 97 95 92 89 85 78 70 63 59 56 54 51 50 48 47 48 48 49 47 46 47 46 49 47 43 40 37 39 46 49 43 39 40 35 26 37 60 65 42 22 38 46 3 24 122 119 110 106 92 75 59 46 38 34 24 12 349 323 307 303 285 231 117 132 132 119 121 118 111 113 112 105 97 92 96 98
85 81 87 89 87 88 88 88 98 101 98 97 95 93 86 78 70 65 64 62 59 56 54 52 54 55 54 52 49 44 44 47 47 44 40 37 32 33 42 35 22 26 355 338 19 35 76 59 354 340 322 327 340 235 164 133 112 78 53 27 27 25 15 6 342 332 335 319 303 271 138 124 145 139 128 134 128 123 119 120 111 98 98 104 100
87 85 87 87 84 81 83 90 99 102 103 102 98 97 93 87 78 73 71 70 67 61 57 55 56 59 58 56 54 48 45 47 48 48 44 40 33 27 29 19 5 11 350 322 350 19 84 91 4 332 320 316 320 292 246 252 275 294 324 328 341 356 352 343 325 329 338 329 317 225 135 138 152 147 144 148 143 137 127 129 122 114 116 113 107
79 82 79 80 80 78 83 88 93 97 101 101 101 97 93 92 87 79 73 69 64 57 53 51 51 54 57 55 54 50 45 42 42 44 40 37 36 27 14 14 8 1 357 315 340 36 66 105 45 345 326 318 313 297 269 264 269 279 293 300 309 327 334 331 325 327 332 330 330 94 129 142 153 152 152 159 157 146 139 135 128 128 128 117 115
70 73 71 72 76 79 86 87 89 91 92 92 93 92 90 89 85 77 67 62 56 53 49 45 44 46 49 47 46 46 41 36 36 33 26 28 33 29 19 17 11 5 23 357 360 64 81 124 54 336 304 312 307 290 289 287 278 281 285 290 297 310 324 328 330 329 329 325 327 38 129 141 139 146 150 161 167 156 151 142 132 130 129 123 123
73 74 75 75 76 77 83 87 85 82 83 83 81 79 80 79 76 71 63 59 55 51 48 46 45 45 46 44 46 47 43 37 35 33 28 28 29 25 26 25 20 22 52 99 69 98 109 181 308 306 291 301 299 285 298 316 309 301 292 294 299 309 320 331 339 334 328 322 326 5 143 160 130 134 142 156 167 162 156 148 139 130 131 131 131
83 84 85 82 83 82 81 82 78 76 74 72 73 70 69 68 66 64 59 56 55 51 49 51 52 53 52 47 48 48 44 41 37 35 34 34 33 26 29 36 32 35 43 49 14 341 315 299 304 299 296 301 294 282 299 330 335 321 307 303 304 312 322 332 337 328 324 316 321 344 175 168 124 133 143 152 154 156 156 146 140 133 137 138 138
88 88 92 90 87 86 80 76 74 72 71 65 62 61 61 59 56 56 54 52 51 49 49 50 52 51 50 45 43 44 41 40 38 35 34 35 36 34 36 34 32 45 46 12 358 342 326 324 318 301 299 297 283 274 286 303 311 318 311 305 307 312 320 328 330 321 321 312 321 342 231 162 114 135 156 158 153 148 149 142 140 139 140 144 149
97 100 103 100 91 85 77 74 77 72 68 61 54 53 52 51 50 48 47 48 47 46 45 41 38 36 40 42 39 41 40 36 34 32 32 33 34 37 37 31 30 44 49 21 6 349 339 338 322 311 306 278 273 280 285 291 291 303 307 308 311 314 318 322 328 324 324 322 336 356 159 176 105 109 164 166 159 154 153 149 146 150 153 154 161
103 110 107 100 96 93 89 83 78 71 67 62 55 48 45 45 45 45 46 48 48 49 48 42 36 35 39 44 47 45 41 35 32 32 29 31 33 34 31 31 36 30 29 20 358 353 344 325 311 303 301 282 273 283 285 287 289 295 297 302 305 310 313 314 322 325 327 330 333 344 186 184 128 68 155 163 163 164 162 162 157 165 177 171 170
98 110 116 107 104 100 97 94 81 71 69 65 58 48 44 44 45 48 50 53 55 55 52 46 40 42 44 44 51 45 37 33 33 33 29 31 29 28 26 25 33 25 18 9 350 346 327 306 294 283 285 283 284 287 287 291 295 297 295 296 296 300 303 307 319 323 319 317 313 313 235 188 179 50 127 173 174 171 163 178 185 176 194 200 190
93 104 108 98 102 98 88 87 77 69 68 65 60 53 50 48 49 50 51 54 54 54 52 50 46 46 49 47 47 37 30 31 29 28 26 28 21 15 17 14 15 13 8 1 350 339 327 308 289 279 277 277 282 282 284 291 296 300 301 298 298 300 299 305 314 310 299 291 297 297 221 184 195 19 190 192 186 177 168 186 201 189 205 213 203
99 98 83 81 90 83 81 86 77 76 74 68 63 56 56 50 48 47 48 52 49 51 48 48 48 47 46 41 39 29 27 32 27 22 18 19 17 9 5 6 7 3 359 353 352 347 339 326 307 291 280 277 278 279 283 292 298 302 304 302 304 304 300 303 301 298 294 285 292 285 228 188 193 253 241 204 191 181 175 184 192 192 208 218 210
92 89 74 80 75 64 76 89 86 88 87 84 76 63 73 62 52 52 45 47 45 45 41 36 36 43 40 25 29 26 24 28 21 18 15 17 20 18 9 11 16 8 360 355 358 355 347 342 332 314 294 286 281 282 288 297 307 307 308 307 302 300 302 304 285 280 287 279 287 278 236 206 199 240 244 212 193 180 180 187 197 193 197 220 223
63 62 69 82 85 96 91 86 93 98 98 105 99 81 89 80 68 67 46 42 43 44 43 35 30 42 41 28 30 25 22 24 20 17 20 26 16 14 18 20 24 15 6 2 2 355 348 344 341 336 323 305 291 290 298 302 311 313 311 306 300 300 301 297 278 267 275 276 283 269 226 212 207 235 251 224 197 182 184 188 203 204 191 209 216
106 65 77 84 81 94 77 72 88 96 87 88 87 73 77 66 61 65 45 43 47 53 54 45 42 46 41 36 32 23 21 21 25 25 15 23 6 6 14 12 12 10 5 358 351 342 339 334 331 333 329 325 312 303 299 295 302 307 302 300 302 297 292 297 295 285 288 285 281 263 232 222 213 233 253 233 212 190 188 190 205 211 195 202 209
136 114 108 94 83 89 72 64 71 75 71 77 78 58 64 62 63 71 64 61 58 59 55 47 47 46 40 37 32 25 25 22 24 22 11 14 18 14 7 357 359 0 355 355 350 336 335 337 328 321 322 316 303 304 299 286 288 295 292 296 298 288 287 296 301 296 293 286 275 267 246 229 220 234 253 240 228 204 196 196 205 213 205 203 201
114 109 108 90 81 89 83 70 65 65 62 78 91 64 71 74 70 74 69 68 63 61 59 50 46 45 40 35 31 25 22 25 23 18 19 22 21 19 7 358 4 359 349 353 352 340 343 344 328 318 328 314 291 301 307 294 292 301 297 295 296 291 292 293 296 302 297 280 274 277 249 228 222 232 257 256 243 219 206 204 207 213 212 208 202
84 81 80 70 64 70 76 75 70 68 53 62 82 69 69 70 63 60 56 58 56 55 58 51 46 43 39 35 34 27 18 21 22 17 24 27 21 18 11 8 8 360 351 357 357 348 352 350 334 319 328 326 306 305 308 306 303 312 315 308 306 299 302 304 300 308 312 289 284 291 261 240 237 249 266 269 255 233 219 213 212 215 218 221 213
69 66 64 59 56 57 62 66 63 64 56 55 68 64 62 64 62 59 51 52 52 48 45 42 44 42 37 35 31 29 24 19 20 16 19 24 19 13 11 16 14 358 344 353 356 347 347 347 340 330 330 328 321 314 312 314 309 318 323 314 311 303 308 307 291 287 288 286 290 298 285 254 249 267 273 270 265 243 231 221 218 219 221 226 222
58 57 58 58 58 56 55 61 55 55 58 57 62 60 56 58 61 58 50 47 47 46 43 35 38 42 37 34 28 25 27 21 21 21 16 18 16 9 9 16 18 4 347 352 354 345 343 342 338 332 332 330 320 317 322 323 317 319 313 305 310 309 316 316 300 289 268 281 293 296 301 267 245 259 266 264 269 255 242 231 225 226 225 226 225
61 59 58 51 51 54 52 54 51 51 55 59 62 61 57 54 54 52 49 44 41 45 45 37 36 37 34 33 28 24 27 20 15 22 20 15 13 9 8 12 14 6 358 357 351 346 341 337 338 331 330 336 331 322 325 327 318 313 311 307 307 308 316 319 315 308 293 305 304 290 296 274 242 246 249 253 266 263 252 243 234 232 231 232 232
59 60 64 54 43 45 49 49 49 52 57 59 61 61 60 58 54 50 49 41 38 44 40 35 36 32 28 28 25 22 26 19 10 15 19 16 14 13 10 11 13 5 3 1 352 347 341 337 341 339 336 338 332 323 323 325 315 313 321 316 304 314 318 313 311 304 303 314 312 296 296 275 246 244 243 248 262 263 256 252 244 236 233 237 240
57 54 59 61 54 48 51 53 52 55 58 60 60 59 58 58 54 48 47 39 39 45 38 36 38 34 30 27 26 25 26 21 12 11 13 13 14 16 14 9 8 2 360 1 354 347 345 344 343 342 341 337 330 324 321 323 322 317 319 310 303 320 321 308 306 298 288 295 308 306 279 273 267 255 248 250 258 261 258 255 251 243 236 239 243
65 64 62 65 65 58 56 55 56 57 57 56 55 56 55 54 52 45 42 38 39 44 40 40 40 40 39 34 30 28 29 23 16 16 16 14 15 18 18 12 8 2 0 1 355 349 349 350 347 345 345 341 336 333 332 333 333 329 325 322 319 321 319 309 304 299 282 278 297 303 275 277 280 272 263 254 254 255 255 255 253 247 239 240 245
80 75 72 69 67 63 60 57 57 57 56 56 53 54 53 52 51 46 44 42 42 43 41 41 41 41 40 38 34 30 31 26 20 23 22 19 18 19 17 13 9 5 6 5 360 356 358 358 353 351 350 344 338 339 343 340 335 332 329 329 326 321 321 320 315 313 303 281 278 283 278 269 271 284 279 264 260 255 255 254 250 247 242 242 247
83 74 70 68 67 65 64 60 59 58 56 55 54 53 53 53 52 49 47 48 49 47 45 44 41 41 39 37 36 31 30 28 25 27 27 24 22 23 19 14 11 9 10 9 7 6 4 3 359 355 352 348 341 339 340 338 337 332 326 324 318 315 318 320 319 319 316 310 300 284 278 273 268 285 284 273 266 260 260 258 250 247 246 247 251
76 75 71 69 67 65 64 60 57 57 54 53 52 51 52 52 52 50 45 45 51 50 49 47 42 40 38 34 32 30 29 28 26 26 26 26 26 25 19 15 16 15 15 13 13 13 9 6 3 359 355 351 345 342 342 342 341 333 327 323 313 308 315 317 315 313 313 319 318 306 300 290 271 272 279 274 268 266 267 266 259 254 255 256 256
72 75 75 71 69 63 60 58 54 52 51 49 48 48 51 52 51 50 44 42 45 46 48 45 40 37 34 30 28 28 27 27 25 23 22 23 27 25 17 15 17 17 17 17 17 17 12 7 5 1 355 349 344 342 345 348 346 336 329 326 321 322 322 316 310 310 312 307 305 309 309 300 289 285 278 268 269 277 281 278 273 266 265 265 263
73 74 75 71 67 61 54 53 50 46 46 47 49 48 49 51 49 48 48 47 43 39 42 42 37 33 29 26 25 25 25 26 24 23 23 23 25 23 16 17 17 17 18 17 17 16 12 6 4 3 356 350 342 338 348 356 350 336 329 331 336 337 325 312 297 295 311 304 296 311 312 310 312 299 273 257 269 291 303 297 286 274 267 269 269
74 71 71 67 63 57 50 45 40 36 34 31 43 55 54 50 46 45 46 49 47 39 37 38 34 29 26 23 22 23 23 23 23 24 24 21 23 21 16 16 16 18 18 16 15 13 11 8 4 3 360 356 345 341 360 4 349 336 336 342 342 333 319 312 301 283 303 311 309 325 320 320 326 313 288 269 283 306 312 309 301 281 266 270 273
71 70 68 65 62 56 49 43 35 32 30 23 25 39 51 51 47 46 43 41 45 45 38 33 32 28 24 23 22 21 20 20 21 24 24 21 19 19 16 15 16 16 16 14 13 10 9 7 6 3 1 0 351 352 7 1 346 343 346 344 339 331 324 325 317 293 306 329 330 335 322 317 323 317 300 298 311 313 304 304 308 291 276 276 279
69 68 66 63 60 55 51 45 38 35 34 29 24 25 32 37 40 36 39 42 38 43 42 32 31 31 26 25 22 20 21 21 22 23 24 22 17 17 16 15 15 13 11 12 11 10 5 2 5 5 2 360 356 2 6 357 347 349 347 343 342 339 335 336 338 344 359 355 341 325 304 298 318 314 298 308 315 313 299 293 300 294 285 280 282
70 68 65 62 58 55 53 48 45 41 39 39 34 29 27 26 28 20 27 52 41 34 42 32 30 34 28 26 23 18 20 22 22 24 26 24 16 13 13 13 15 11 9 11 10 10 4 1 9 8 3 358 357 5 5 357 354 351 344 342 345 344 338 341 357 4 2 353 343 330 317 307 309 293 289 312 311 307 303 295 293 291 284 281 286
77 73 69 67 64 59 57 51 49 46 42 46 44 43 37 30 33 23 23 43 40 25 37 35 33 37 30 26 22 17 18 19 20 22 26 25 16 11 10 10 14 11 9 11 10 10 4 6 16 12 4 360 359 5 4 1 1 353 341 338 343 343 343 353 360 357 354 350 348 344 342 341 329 311 297 300 299 301 311 308 292 286 284 282 289
86 81 74 74 72 66 63 57 55 51 46 47 43 40 41 37 43 39 33 37 25 12 25 41 39 37 35 29 21 16 17 17 17 18 20 21 17 14 11 11 15 11 8 11 11 9 4 10 20 11 2 4 2 2 4 6 3 351 341 339 349 342 342 355 352 345 346 349 348 347 348 347 343 340 332 311 296 293 290 303 309 307 305 292 288
92 89 86 86 84 76 70 61 58 57 53 52 47 42 39 38 40 44 53 51 33 14 18 37 37 27 29 27 23 19 17 16 15 15 17 17 15 15 13 12 15 9 4 12 14 8 3 8 17 10 4 9 4 357 5 10 2 354 349 342 344 343 342 348 339 333 339 345 344 346 346 343 342 343 342 342 346 329 277 280 321 321 317 304 292
93 97 101 97 92 85 79 73 65 60 60 56 52 49 44 42 40 38 47 57 57 37 21 27 31 24 25 20 21 25 19 16 14 12 15 16 12 13 13 11 12 7 4 17 18 8 4 7 13 12 9 11 3 356 4 7 360 360 11 9 341 348 342 332 327 323 336 341 341 344 342 341 344 347 348 348 350 349 343 329 324 316 309 304 300
101 101 103 97 89 80 74 74 66 57 63 62 54 51 47 42 42 38 31 31 55 68 40 23 13 17 34 23 16 26 19 13 14 10 10 14 11 10 11 10 11 5 3 17 19 7 6 5 10 14 11 9 4 359 2 1 357 3 14 10 346 334 321 323 327 318 329 335 340 343 340 342 349 349 346 343 344 347 346 337 323 310 297 293 301
111 107 106 99 92 84 79 76 64 49 54 61 58 57 54 45 41 37 24 14 21 41 40 30 11 7 30 28 10 17 18 11 15 12 7 11 10 6 7 7 10 4 0 13 13 5 5 0 8 16 11 10 8 4 3 359 356 0 4 358 345 340 329 326 332 324 324 329 337 342 340 341 345 342 339 341 340 338 337 334 329 323 314 301 298
123 121 109 95 92 91 93 91 82 64 51 53 51 53 57 51 48 40 26 17 13 14 19 25 22 10 21 25 9 9 14 11 12 11 5 8 8 4 4 4 7 4 359 7 5 2 3 357 6 14 6 10 11 7 8 1 355 355 354 350 347 345 337 334 339 335 322 318 331 337 336 336 336 333 336 339 335 333 334 332 330 328 318 305 298
122 120 112 105 104 101 96 93 90 83 66 58 51 46 45 46 49 42 32 24 11 13 18 15 20 21 19 21 13 5 8 9 7 5 1 2 3 1 2 1 5 3 356 1 0 359 1 355 1 5 360 8 8 3 9 1 351 350 350 347 344 343 338 337 338 334 327 324 328 331 333 332 330 329 335 336 333 334 330 323 321 319 313 310 308
119 127 129 118 115 108 94 88 86 85 75 62 55 49 39 39 44 33 29 29 11 13 25 15 15 27 23 17 14 7 7 6 3 2 358 358 1 1 1 1 2 0 355 357 356 357 4 356 356 359 358 4 358 353 2 356 345 345 347 342 337 339 336 332 333 331 330 329 323 320 324 325 324 328 333 334 332 329 322 316 318 320 319 321 319
131 142 139 125 125 119 95 88 88 91 85 65 54 50 39 36 41 31 25 28 18 14 22 21 16 20 21 16 13 11 9 6 2 3 1 0 3 1 360 1 360 358 355 357 354 357 3 355 352 356 358 357 348 349 359 351 340 340 342 336 330 332 328 322 326 328 328 326 320 314 314 316 319 322 326 328 325 321 318 320 322 320 323 330 329